This is the latest recevied weather packets stored in our database for station/object TG8ARF-18. If no packets are shown the sender has not sent any weather packets the latest 10 day(s).
| Time | Temp. | Humidity | Pressure | Rain* | Wind** | Luminosity | Snow |
|---|---|---|---|---|---|---|---|
| 1778113014 | 18.33° C | 88% | 1015 hPa | 0.76 mm | - | - | - |
| 1778112414 | 18.89° C | 86% | 1015 hPa | 0.51 mm | - | - | - |
| 1778111813 | 17.78° C | 86% | 1015 hPa | 0 mm | - | - | - |
| 1778111213 | 16.67° C | 86% | 1015 hPa | 0 mm | - | - | - |
| 1778110612 | 18.89° C | 82% | 1015 hPa | 0 mm | - | - | - |
| 1778110012 | 17.78° C | 82% | 1014 hPa | 0 mm | - | - | - |
| 1778109410 | 16.67° C | 82% | 1014 hPa | 0 mm | - | - | - |
| 1778108809 | 16.67° C | 82% | 1014 hPa | 0 mm | - | - | - |
| 1778108209 | 24.44° C | 79% | 1014 hPa | 0 mm | - | - | - |
| 1778107608 | 21.11° C | 79% | 1014 hPa | 0 mm | - | - | - |
| 1778107007 | 21.11° C | 79% | 1014 hPa | 0 mm | - | - | - |
| 1778106407 | 20° C | 79% | 1014 hPa | 0 mm | - | - | - |
| 1778105806 | 18.89° C | 79% | 1014 hPa | 0 mm | - | - | - |
| 1778105206 | 21.11° C | 80% | 1014 hPa | 0 mm | - | - | - |
| 1778104605 | 20° C | 80% | 1014 hPa | 0 mm | - | - | - |
| 1778104004 | 18.89° C | 80% | 1014 hPa | 0 mm | - | - | - |
| 1778103403 | 18.89° C | 80% | 1014 hPa | 0 mm | - | - | - |
| 1778102803 | 24.44° C | 78% | 1014 hPa | 0 mm | - | - | - |
| 1778102202 | 24.44° C | 78% | 1014 hPa | 0 mm | - | - | - |
| 1778101231 | 24.44° C | 78% | 1014 hPa | 0 mm | - | - | - |
| 1778100631 | 23.33° C | 78% | 1014 hPa | 0 mm | - | - | - |
| 1778100030 | 22.78° C | 77% | 1014 hPa | 0 mm | - | - | - |
| 1778099430 | 22.22° C | 69% | 1014 hPa | 0 mm | - | - | - |
| 1778098821 | 21.11° C | 69% | 1014 hPa | 0 mm | - | - | - |
| 1778098219 | 20° C | 69% | 1014 hPa | 0 mm | - | - | - |
* Rain latest hour (hover to see other rain measurements)
** Current wind speed in m/s (hover to see current wind gust speed)